Location: Goudex
(43.3760°N, 0.9543°E)
Time: 15:25:34
(UTC+00:00)

SL-4 R/B - Pass Details

Date: 20 November 2019
Orbit: 428 x 667 km, 51.6° (Epoch: 08 December)

Event Time Altitude Azimuth Distance (km) Brightness Sun altitude
Exits shadow 05:18:10 33° 291° (WNW) 1,121 3.0 -17.5°
Maximum altitude 05:20:17 69° 217° (SW) 713 2.4 -17.1°
Drops below altitude 10° 05:25:03 10° 134° (SE) 2,064 5.8 -16.3°
Sets 05:27:22 0° 132° (SE) 2,954 6.8 -15.9°
